Flag for Palestinian Territories Weather past 2 weeks in Nablus, West Bank, Palestinian Territories

75 °F


Feels Like: 78 °F
Forecast: 50 / 70 °F
Wind: 9 mph from Northwest

Location: Ben Gurion International Airport

Current Time: Nov 28, 2015 at 12:13:32 PM

Latest Report: Nov 28, 2015 at 11:50 AM

Visibility: 10 mi

Pressure: 30.09 "Hg (28.30 "Hg at 534m altitude)

Humidity: 41%

Dew point: 50 °F

Location of NablusLocation

Historic Weather in Nablus — Graph


Nablus temperature yesterday

Maximum temperature yesterday: 81 °F (at 12:50 PM)
Minimum temperature yesterday: 57 °F (at 5:20 AM)
Average temperature yesterday: 68 °F

Past Weeks' High & Low Weather Summary

High90 °F (Nov 15, 1:50 PM)94% (Nov 16, 11:20 AM)30.18 "Hg (Nov 16, 11:20 AM)
Low54 °F (Nov 14, 5:20 AM)20% (Nov 14, 10:20 AM)29.74 "Hg (Nov 16, 11:50 AM)
Average69 °F56%29.99 "Hg
* Reported Nov 13 10:20 AM — Nov 28 10:50 AM, Nablus, Weather by CustomWeather, © 2015

Note: Actual official high and low records may vary slightly from our data, if they occured in-between our weather recording intervals... More about our weather records


Nablus weather history for previous 24 hours

Time TempWeatherWind HumidityBarometerVisibility
10:50 AM
Sat, Nov 28
75 °FSunny.6 mph44%30.09 "Hg10 mi
10:20 AM73 °FSunny.2 mph44%30.09 "Hg10 mi
9:50 AM72 °FSunny.2 mph47%30.12 "Hg10 mi
8:20 AM64 °FSunny.1 mph64%30.12 "Hg10 mi
7:50 AM61 °FSunny.3 mph68%30.12 "Hg10 mi
7:20 AM59 °FSunny.2 mph77%30.12 "Hg10 mi
6:50 AM55 °FSunny.2 mph82%30.09 "Hg10 mi
6:20 AM55 °FSunny.1 mph82%30.09 "Hg10 mi
5:50 AM55 °FClear.1 mph82%30.09 "Hg10 mi
5:20 AM55 °FClear.3 mph82%30.09 "Hg10 mi
4:50 AM55 °FClear.2 mph88%30.09 "Hg10 mi
4:20 AM55 °FClear.2 mph88%30.07 "Hg10 mi
3:50 AM55 °FClear.2 mph88%30.07 "Hg10 mi
3:20 AM57 °FClear.5 mph82%30.07 "Hg10 mi
2:50 AM59 °FClear.3 mph82%30.09 "Hg10 mi
1:50 AM57 °FClear.2 mph88%30.09 "Hg10 mi
12:50 AM61 °FClear.2 mph77%30.09 "Hg10 mi
12:20 AM63 °FClear.5 mph73%30.09 "Hg10 mi
11:50 PM
Fri, Nov 27
63 °FClear.3 mph73%30.09 "Hg10 mi
11:20 PM63 °FClear.5 mph77%30.09 "Hg10 mi
10:50 PM61 °FClear.3 mph83%30.09 "Hg10 mi
10:20 PM61 °FClear.3 mph83%30.09 "Hg10 mi
9:50 PM63 °FClear.2 mph77%30.09 "Hg10 mi
9:20 PM64 °FClear.5 mph73%30.09 "Hg10 mi
8:50 PM64 °FClear.3 mph73%30.09 "Hg10 mi
8:20 PM64 °FClear.2 mph78%30.09 "Hg10 mi
7:50 PM66 °FClear.2 mph73%30.07 "Hg10 mi
7:20 PM68 °FClear.2 mph69%30.07 "Hg10 mi
6:50 PM66 °FClear.2 mph73%30.07 "Hg10 mi
6:20 PM68 °FClear.2 mph73%30.07 "Hg10 mi
5:50 PM72 °FClear.3 mph61%30.04 "Hg10 mi
5:20 PM72 °FClear.3 mph61%30.04 "Hg10 mi
4:50 PM73 °FClear.3 mph61%30.04 "Hg10 mi
4:20 PM73 °FSunny.3 mph61%30.01 "Hg10 mi
3:50 PM73 °FSunny.7 mph61%30.01 "Hg10 mi
3:20 PM75 °FSunny.12 mph54%30.01 "Hg10 mi
2:50 PM75 °FSunny.13 mph47%30.01 "Hg10 mi
2:20 PM77 °FSunny.12 mph47%30.01 "Hg10 mi
1:50 PM77 °FSunny.13 mph51%30.01 "Hg10 mi
1:20 PM79 °FSunny.8 mph45%30.01 "Hg10 mi
12:50 PM81 °FSunny.3 mph37%29.98 "Hg10 mi
12:20 PM79 °FPassing clouds.5 mph39%30.01 "HgN/A
Weather by CustomWeather, © 2015

See weather overviewHow to use our weather pages